• Join FlightAware (Why Join?)
  • Login
  • US Flag 
09:14AM EDT


 

Airport Tracker/Info


-or-


 

Live Flight TrackerFlight Track Log ✈ SWA1802 ✈ 15-Dec-2013 ✈ KOMA - KDEN

Flight Track Log - Related Links

Times and Time Zones

All times are in EST time to prevent confusion due to time zone crossing. See the SWA1802 flight status page for this flight to view local times or setup timezone preferences in your user account.

Time Position Orientation Groundspeed Altitude Reporting Facility
EST Latitude Longitude Course Direction KTS MPH feet Rate Location/Type
08:44PM 41.2886 -95.8897 164° South 157 181 1,700  Level Minneapolis Center
08:44PM 41.2714 -95.8833 164° South 152 175 2,700 1,920 Climbing Minneapolis Center
08:45PM 41.2158 -95.8956 189° South 237 273 4,700 1,800 Climbing Minneapolis Center
08:46PM 41.2111 -95.9103 247° West 225 259 5,200 2,640 Climbing Minneapolis Center
08:47PM 41.2136 -95.9944 272° West 226 260 8,400 2,820 Climbing Minneapolis Center
08:48PM 41.2236 -96.0886 278° West 247 284 11,000 2,580 Climbing Minneapolis Center
08:49PM 41.2325 -96.2092 276° West 314 361 13,800 2,880 Climbing Minneapolis Center
08:50PM 41.2433 -96.3550 276° West 327 376 17,000 2,820 Climbing Minneapolis Center
08:51PM 41.2528 -96.4842 276° West 342 394 19,700 2,280 Climbing Minneapolis Center
08:52PM 41.2625 -96.6164 276° West 354 407 21,800 2,100 Climbing Minneapolis Center
08:53PM 41.2667 -96.7544 272° West 369 425 24,100 1,980 Climbing Minneapolis Center
08:54PM 41.2494 -96.8956 261° West 386 444 25,900 1,920 Climbing Minneapolis Center
08:55PM 41.2342 -97.0389 262° West 390 449 28,100 2,160 Climbing Minneapolis Center
08:56PM 41.2194 -97.1781 262° West 384 442 30,400 2,100 Climbing Minneapolis Center
08:57PM 41.2044 -97.3125 262° West 373 429 32,500 1,860 Climbing Minneapolis Center
08:58PM 41.1892 -97.4481 262° West 361 415 34,300 1,500 Climbing Minneapolis Center
08:59PM 41.1756 -97.5767 262° West 353 406 35,600 780 Climbing Minneapolis Center
09:00PM 41.1606 -97.7058 261° West 353 406 36,000 180 Climbing Minneapolis Center
09:01PM 41.1431 -97.8642 262° West 359 413 36,000  Level Minneapolis Center
09:02PM 41.1278 -97.9950 261° West 359 413 36,000  Level Minneapolis Center
09:03PM 41.1128 -98.1258 261° West 359 413 36,000  Level Minneapolis Center
09:04PM 41.0964 -98.2572 261° West 360 414 36,000  Level Minneapolis Center
09:05PM 41.0811 -98.3889 261° West 360 414 36,000  Level Minneapolis Center
09:06PM 41.0669 -98.5114 261° West 361 415 36,000  Level Minneapolis Center
09:07PM 41.0478 -98.6672 261° West 358 412 36,000  Level Minneapolis Center
09:08PM 41.0331 -98.7958 261° West 355 409 36,000  Level Minneapolis Center
09:09PM 41.0158 -98.9261 260° West 357 411 36,000  Level Minneapolis Center
09:10PM 40.9992 -99.0564 260° West 359 413 36,000  Level Minneapolis Center
09:11PM 40.9844 -99.1783 261° West 357 411 36,000  Level Minneapolis Center
09:12PM 40.9678 -99.3092 260° West 358 412 36,000  Level Minneapolis Center
09:13PM 40.9514 -99.4397 261° West 359 413 36,000  Level Minneapolis Center
09:14PM 40.9314 -99.5969 260° West 360 414 36,000  Level Minneapolis Center
09:15PM 40.9142 -99.7272 260° West 360 414 36,000  Level Minneapolis Center
09:16PM 40.8964 -99.8589 260° West 363 418 36,000  Level Minneapolis Center
09:17PM 40.8789 -99.9903 260° West 363 418 36,000  Level Minneapolis Center
09:19PM 40.8608 -100.1231 260° West 365 420 36,000  Level Minneapolis Center
09:20PM 40.8439 -100.2544 260° West 365 420 36,000  Level Minneapolis Center
09:21PM 40.8253 -100.3858 259° West 364 419 36,000  Level Minneapolis Center
09:22PM 40.8072 -100.5181 260° West 365 420 36,000  Level Minneapolis Center
09:23PM 40.7789 -100.7028 259° West 366 421 36,000  Level Denver Center
09:24PM 40.7556 -100.8422 258° West 371 427 36,000  Level Denver Center
09:25PM 40.7311 -100.9922 258° West 372 428 36,000  Level Denver Center
09:26PM 40.7097 -101.1206 258° West 374 430 36,000  Level Denver Center
09:27PM 40.6867 -101.2483 257° West 374 430 36,000  Level Denver Center
09:28PM 40.6608 -101.3978 257° West 374 430 36,000  Level Denver Center
09:29PM 40.6381 -101.5261 257° West 376 433 36,000  Level Denver Center
09:30PM 40.6108 -101.6742 256° West 374 430 36,000  Level Denver Center
09:31PM 40.5883 -101.8017 257° West 374 430 36,000  Level Denver Center
09:32PM 40.5608 -101.9522 257° West 378 435 36,000  Level Denver Center
09:33PM 40.5378 -102.0808 257° West 378 435 36,000  Level Denver Center
09:34PM 40.5186 -102.1875 257° West 377 434 36,000  Level Denver Center
09:35PM 40.4875 -102.3589 257° West 378 435 36,000  Level Denver Center
09:36PM 40.4631 -102.4881 256° West 381 438 36,000  Level Denver Center
09:37PM 40.4347 -102.6400 256° West 385 443 36,000  Level Denver Center
09:38PM 40.4086 -102.7742 256° West 385 443 36,000  Level Denver Center
09:39PM 40.3836 -102.9094 256° West 383 441 36,000 -900 Level Denver Center
09:40PM 40.3583 -103.0419 256° West 376 433 34,200 -2,640 Descending Denver Center
09:41PM 40.3319 -103.1733 255° West 373 429 30,600 -3,120 Descending Denver Center
09:42PM 40.3061 -103.3106 256° West 387 445 27,900 -2,640 Descending Denver Center
09:44PM 40.2772 -103.4647 256° West 365 420 25,300 -2,340 Descending Denver Center
09:45PM 40.2525 -103.5847 255° West 345 397 23,100 -1,860 Descending Denver Center
09:46PM 40.2300 -103.6994 256° West 330 380 21,500 -1,740 Descending Denver Center
09:47PM 40.2086 -103.8114 256° West 304 350 19,600 -1,260 Descending Denver Center
09:48PM 40.2053 -103.8958 267° West 274 315 19,000 -840 Descending Denver Center
09:49PM 40.2050 -104.0147 270° West 278 320 17,900 -900 Descending Denver Center
09:50PM 40.1981 -104.1269 265° West 306 352 17,200 -840 Descending Denver Center
09:51PM 40.1900 -104.2442 265° West 323 372 16,200 -1,320 Descending Denver Center
09:52PM 40.1842 -104.3531 266° West 307 353 14,500 -1,800 Descending Denver Center
09:53PM 40.1764 -104.4656 265° West 291 335 12,600 -1,440 Descending Denver Center
09:54PM 40.1253 -104.5414 229° Southwest 285 328 11,600 -1,140 Descending Denver Center
09:55PM 40.0694 -104.5975 218° Southwest 226 260 10,300 -1,380 Descending Denver Center
09:56PM 40.0292 -104.6428 221° Southwest 191 220 8,800 -1,560 Descending Denver Center
09:57PM 39.9939 -104.6778 217° Southwest 164 189 7,100 -1,260 Descending Denver Center
09:58PM 39.9481 -104.6839 186° South 151 174 6,300 -660 Descending Denver Center
09:59PM 39.9081 -104.6869 183° South 146 168 5,700 -540 Descending Denver Center
10:01PM 39.8617 -104.6732 194° South  Level Estimated
10:08PM 39.8617 -104.6732 194° South  Level Estimated
10:09PM 39.8617 -104.6732 194° South  Level Estimated
10:10PM 39.8617 -104.6732 194° South  Level Estimated